| time (UTC) | temp F | wind direction | speed knots | gust knots | rain 1hr in | rain 24hr in | rain mn in | humidity % | barometer mb |
| 20260903231559 | 97 | 311 | 7.8 | 12.2 | 0.00 | 0.00 | 0.00 | 28 | 995.5 |
| 20260903230057 | 97 | 146 | 6.1 | 13.9 | 0.00 | 0.00 | 0.00 | 28 | 995.4 |
| 20260903224558 | 96 | 182 | 9.6 | 13.0 | 0.00 | 0.00 | 0.00 | 28 | 995.6 |
| 20260903223035 | 94 | 167 | 16.5 | 21.7 | 0.00 | 0.00 | 0.00 | 30 | 995.7 |
| 20260903221508 | 94 | 149 | 21.7 | 30.4 | 0.00 | 0.00 | 0.00 | 31 | 995.6 |
| 20260903220009 | 97 | 212 | 7.8 | 13.0 | 0.00 | 0.00 | 0.00 | 27 | 995.7 |
| 20260903214508 | 96 | 279 | 10.4 | 15.6 | 0.00 | 0.00 | 0.00 | 28 | 995.6 |
| 20260903213033 | 94 | 306 | 13.9 | 18.2 | 0.00 | 0.00 | 0.00 | 30 | 995.8 |
| 20260903211519 | 94 | 296 | 15.6 | 23.5 | 0.00 | 0.00 | 0.00 | 30 | 996.1 |
| 20260903210014 | 97 | 304 | 9.6 | 21.7 | 0.00 | 0.00 | 0.00 | 28 | 996.1 |
| 20260903204519 | 98 | 205 | 8.7 | 14.8 | 0.00 | 0.00 | 0.00 | 25 | 996.1 |
| 20260903203011 | 97 | 221 | 6.1 | 11.3 | 0.00 | 0.00 | 0.00 | 25 | 996.2 |
| 20260903201502 | 97 | 334 | 10.4 | 12.2 | 0.00 | 0.00 | 0.00 | 27 | 996.3 |
| 20260903200101 | 98 | 232 | 5.2 | 13.0 | 0.00 | 0.00 | 0.00 | 26 | 996.6 |
| 20260903194559 | 98 | 146 | 6.1 | 10.4 | 0.00 | 0.00 | 0.00 | 25 | 996.8 |
| 20260903191600 | 97 | 252 | 9.6 | 12.2 | 0.00 | 0.00 | 0.00 | 27 | 997.3 |
| 20260903190051 | 97 | 46 | 3.5 | 8.7 | 0.00 | 0.00 | 0.00 | 27 | 997.7 |
| 20260903184551 | 96 | 211 | 5.2 | 17.4 | 0.00 | 0.00 | 0.00 | 28 | 998.0 |
| 20260903181556 | 95 | 324 | 4.3 | 16.5 | 0.00 | 0.00 | 0.00 | 29 | 998.7 |
| 20260903180056 | 95 | 234 | 7.0 | 15.6 | 0.00 | 0.00 | 0.00 | 30 | 999.1 |
| 20260903174540 | 94 | 281 | 7.0 | 13.0 | 0.00 | 0.00 | 0.00 | 30 | 999.1 |
| 20260903171558 | 93 | 241 | 12.2 | 17.4 | 0.00 | 0.00 | 0.00 | 31 | 999.4 |
| 20260903170055 | 93 | 237 | 9.6 | 17.4 | 0.00 | 0.00 | 0.00 | 32 | 999.5 |
| 20260903164551 | 92 | 262 | 11.3 | 20.0 | 0.00 | 0.00 | 0.00 | 32 | 999.5 |
| 20260903161504 | 91 | 270 | 9.6 | 18.2 | 0.00 | 0.00 | 0.00 | 35 | 999.6 |
| 20260903160101 | 90 | 233 | 12.2 | 16.5 | 0.00 | 0.00 | 0.00 | 36 | 999.6 |
| 20260903154600 | 89 | 225 | 9.6 | 15.6 | 0.00 | 0.00 | 0.00 | 37 | 999.6 |
| 20260903151551 | 88 | 238 | 10.4 | 16.5 | 0.00 | 0.00 | 0.00 | 38 | 999.7 |
| 20260903150049 | 87 | 247 | 13.0 | 16.5 | 0.00 | 0.00 | 0.00 | 39 | 999.7 |
| 20260903144605 | 86 | 254 | 10.4 | 13.9 | 0.00 | 0.00 | 0.00 | 40 | 999.9 |
| 20260903141548 | 85 | 238 | 9.6 | 13.9 | 0.00 | 0.00 | 0.00 | 42 | 999.9 |
| 20260903140045 | 83 | 234 | 10.4 | 13.0 | 0.00 | 0.00 | 0.00 | 44 | 999.9 |
| 20260903134536 | 82 | 238 | 11.3 | 13.0 | 0.00 | 0.00 | 0.00 | 46 | 999.9 |
| 20260903131534 | 79 | 255 | 10.4 | 13.0 | 0.00 | 0.00 | 0.00 | 49 | 999.6 |
| 20260903130032 | 79 | 252 | 10.4 | 12.2 | 0.00 | 0.00 | 0.00 | 48 | 999.6 |
| 20260903124530 | 80 | 254 | 12.2 | 14.8 | 0.00 | 0.00 | 0.00 | 48 | 999.3 |
| 20260903121533 | 78 | 257 | 10.4 | 12.2 | 0.00 | 0.00 | 0.00 | 48 | 999.1 |
| 20260903120039 | 79 | 269 | 10.4 | 12.2 | 0.00 | 0.00 | 0.00 | 47 | 999.1 |
| 20260903114525 | 79 | 270 | 8.7 | 11.3 | 0.00 | 0.00 | 0.00 | 47 | 998.8 |
| 20260903111531 | 80 | 254 | 9.6 | 10.4 | 0.00 | 0.00 | 0.00 | 48 | 998.7 |
| 20260903110031 | 78 | 277 | 7.0 | 10.4 | 0.00 | 0.00 | 0.00 | 49 | 998.8 |
| 20260903104549 | 78 | 226 | 5.2 | 7.0 | 0.00 | 0.00 | 0.00 | 50 | 998.7 |
| 20260903101526 | 77 | 209 | 6.1 | 8.7 | 0.00 | 0.00 | 0.00 | 50 | 998.6 |
| 20260903100043 | 80 | 200 | 9.6 | 11.3 | 0.00 | 0.00 | 0.00 | 48 | 998.7 |
| 20260903094547 | 81 | 198 | 7.8 | 10.4 | 0.00 | 0.00 | 0.00 | 47 | 998.8 |
| 20260903091516 | 81 | 203 | 7.8 | 9.6 | 0.00 | 0.00 | 0.00 | 45 | 998.8 |
| 20260903090009 | 81 | 209 | 8.7 | 9.6 | 0.00 | 0.00 | 0.00 | 45 | 998.9 |
| 20260903084508 | 82 | 207 | 7.8 | 10.4 | 0.00 | 0.00 | 0.00 | 44 | 998.8 |
| 20260903081507 | 82 | 200 | 8.7 | 9.6 | 0.00 | 0.00 | 0.00 | 43 | 999.0 |
| 20260903080007 | 83 | 198 | 7.8 | 9.6 | 0.00 | 0.00 | 0.00 | 42 | 999.2 |
| 20260903074506 | 83 | 186 | 7.0 | 8.7 | 0.00 | 0.00 | 0.00 | 42 | 999.2 |
| 20260903071507 | 85 | 216 | 5.2 | 7.0 | 0.00 | 0.00 | 0.00 | 40 | 999.2 |
| 20260903070004 | 84 | 195 | 4.3 | 6.1 | 0.00 | 0.00 | 0.00 | 41 | 999.2 |
| 20260903064502 | 85 | 168 | 7.8 | 11.3 | 0.00 | 0.00 | 0.00 | 41 | 999.3 |
| 20260903061506 | 84 | 216 | 6.1 | 7.8 | 0.00 | 0.00 | 0.00 | 42 | 999.3 |
| 20260903060002 | 86 | 193 | 7.0 | 8.7 | 0.00 | 0.00 | 0.00 | 40 | 999.5 |
| 20260903054502 | 86 | 189 | 8.7 | 10.4 | 0.00 | 0.00 | 0.00 | 40 | 999.5 |
| 20260903051502 | 85 | 198 | 7.8 | 9.6 | 0.00 | 0.00 | 0.00 | 42 | 999.5 |
| 20260903050100 | 85 | 208 | 7.8 | 8.7 | 0.00 | 0.00 | 0.00 | 42 | 999.5 |
| 20260903044601 | 85 | 219 | 7.0 | 8.7 | 0.00 | 0.00 | 0.00 | 43 | 999.5 |
| 20260903041605 | 87 | 214 | 7.0 | 9.6 | 0.00 | 0.00 | 0.00 | 37 | 999.6 |
| 20260903040058 | 87 | 210 | 7.0 | 8.7 | 0.00 | 0.00 | 0.00 | 38 | 999.5 |
| 20260903034556 | 87 | 207 | 7.8 | 8.7 | 0.00 | 0.00 | 0.00 | 37 | 999.4 |
| 20260903031559 | 88 | 214 | 7.8 | 10.4 | 0.00 | 0.00 | 0.00 | 37 | 999.2 |
| 20260903030058 | 89 | 209 | 10.4 | 14.8 | 0.00 | 0.00 | 0.00 | 36 | 999.0 |
| 20260903024604 | 89 | 193 | 11.3 | 14.8 | 0.00 | 0.02 | 0.00 | 39 | 998.8 |
| 20260903021554 | 91 | 191 | 1.7 | 3.5 | 0.00 | 0.02 | 0.00 | 34 | 998.3 |
| 20260903020053 | 92 | 123 | 1.7 | 2.6 | 0.00 | 0.02 | 0.00 | 34 | 998.2 |
| 20260903014555 | 92 | 144 | 1.7 | 2.6 | 0.00 | 0.02 | 0.00 | 33 | 998.2 |
| 20260903011555 | 92 | 184 | 4.3 | 5.2 | 0.00 | 0.02 | 0.00 | 31 | 998.1 |
| 20260903010054 | 92 | 182 | 4.3 | 8.7 | 0.00 | 0.02 | 0.00 | 34 | 998.1 |
| 20260903004557 | 92 | 169 | 10.4 | 11.3 | 0.00 | 0.02 | 0.00 | 33 | 998.1 |
| 20260903001518 | 92 | 148 | 8.7 | 11.3 | 0.00 | 0.02 | 0.00 | 35 | 998.0 |
| 20260903000035 | 92 | 147 | 10.4 | 13.0 | 0.00 | 0.02 | 0.00 | 35 | 998.2 |
| 20260902234515 | 93 | 123 | 8.7 | 12.2 | 0.00 | 0.02 | 0.00 | 30 | 998.2 |